This is the latest recevied weather packets stored in our database for station/object JA7ZQY-10. If no packets are shown the sender has not sent any weather packets the latest 10 day(s).
| Time | Temp. | Humidity | Pressure | Rain* | Wind** | Luminosity | Snow |
|---|---|---|---|---|---|---|---|
| 1777571556 | 6.67° C | 75% | 1017 hPa | 0 mm | - | - | - |
| 1777570956 | 6.67° C | 76% | 1017.2 hPa | 0 mm | - | - | - |
| 1777570355 | 6.67° C | 75% | 1016.9 hPa | 0 mm | - | - | - |
| 1777569756 | 6.67° C | 75% | 1017.1 hPa | 0 mm | - | - | - |
| 1777569155 | 6.67° C | 74% | 1017.6 hPa | 0 mm | - | - | - |
| 1777568556 | 6.67° C | 74% | 1017.6 hPa | 0 mm | - | - | - |
| 1777567955 | 7.22° C | 72% | 1017.6 hPa | 0 mm | - | - | - |
| 1777567355 | 7.22° C | 72% | 1017.7 hPa | 0 mm | - | - | - |
| 1777566756 | 7.22° C | 71% | 1017.8 hPa | 0 mm | - | - | - |
| 1777566156 | 7.22° C | 71% | 1017.8 hPa | 0 mm | - | - | - |
| 1777565556 | 7.22° C | 71% | 1018.2 hPa | 0 mm | - | - | - |
| 1777564955 | 7.78° C | 66% | 1018.3 hPa | 0 mm | - | - | - |
| 1777564356 | 7.78° C | 64% | 1018.4 hPa | 0 mm | - | - | - |
| 1777563756 | 7.78° C | 62% | 1018.5 hPa | 0 mm | - | - | - |
| 1777563155 | 8.33° C | 60% | 1018.8 hPa | 0 mm | - | - | - |
| 1777562556 | 8.33° C | 60% | 1019 hPa | 0 mm | - | - | - |
| 1777561955 | 8.33° C | 58% | 1019.2 hPa | 0 mm | - | - | - |
| 1777561356 | 8.89° C | 57% | 1019.1 hPa | 0 mm | - | - | - |
| 1777560757 | 8.89° C | 57% | 1019.1 hPa | 0 mm | - | - | - |
| 1777560156 | 8.89° C | 56% | 1019.4 hPa | 0 mm | - | - | - |
| 1777559556 | 8.89° C | 56% | 1019.3 hPa | 0 mm | - | - | - |
| 1777558956 | 8.89° C | 57% | 1019.6 hPa | 0 mm | - | - | - |
| 1777558355 | 9.44° C | 56% | 1019.9 hPa | 0 mm | - | - | - |
| 1777557757 | 9.44° C | 56% | 1019.8 hPa | 0 mm | - | - | - |
| 1777557155 | 9.44° C | 60% | 1020.2 hPa | 0 mm | - | - | - |
* Rain latest hour (hover to see other rain measurements)
** Current wind speed in m/s (hover to see current wind gust speed)